Wind_Speed
12 11 10 9 6 6 8 11 14 19 20 21 22 23 22 23 22 20 20 18 16 14 12 10 4 7 9 14 15 19 19 19 18 17 17 15 14 12 11 10 9 8 7 6
12 11 12 10 6 4 8 11 14 18 21 23 24 23 21 23 21 18 17 15 13 13 11 9 3 3 7 12 14 17 18 18 17 17 16 15 13 12 11 11 10 9 8 7
12 13 16 13 7 5 7 11 15 19 21 22 24 22 22 20 17 16 14 13 12 12 10 8 4 3 6 9 11 14 18 16 16 16 15 14 13 12 11 11 11 10 9 8
12 15 17 15 9 6 9 12 16 17 19 21 22 24 20 15 13 12 11 11 11 11 10 9 6 3 5 8 11 13 16 17 17 16 15 14 14 13 12 12 11 11 10 9
11 16 17 15 10 8 10 12 15 17 19 21 21 21 17 12 10 9 10 11 10 10 9 8 7 5 5 8 11 12 14 17 17 16 15 14 14 13 13 12 12 11 11 11
12 15 15 13 11 9 10 14 16 18 19 20 20 19 16 13 10 8 8 9 10 9 9 7 6 6 6 7 9 11 14 15 16 15 15 14 14 14 13 13 13 12 12 12
14 14 14 13 11 9 11 14 17 18 19 19 19 18 16 12 9 8 8 8 8 8 8 7 6 5 5 6 8 10 11 13 14 14 15 14 15 14 14 14 13 14 14 14
14 13 14 15 12 10 11 14 17 19 19 21 19 19 16 13 10 9 9 9 7 7 7 6 5 5 5 6 7 8 9 11 13 15 15 15 15 15 15 15 15 15 15 15
15 14 16 17 16 15 14 14 16 19 20 22 21 19 15 12 10 9 9 9 7 6 5 4 4 3 4 4 5 7 9 10 12 13 15 15 15 15 15 15 16 16 16 16
18 18 17 17 19 18 16 17 18 19 22 23 23 20 17 15 13 11 8 8 7 5 4 3 3 2 1 2 3 6 9 11 11 12 13 14 14 15 15 16 17 17 17 18
24 24 20 21 22 21 20 19 21 22 23 25 25 23 19 16 14 10 8 8 6 3 3 3 4 2 1 2 3 5 7 9 11 12 13 14 14 15 16 17 18 18 19 20
29 30 28 26 24 24 24 24 24 24 25 26 27 23 19 16 13 12 11 9 7 5 4 4 5 4 4 4 4 6 8 9 10 13 14 14 15 16 17 18 19 19 21 22
34 36 35 31 29 28 28 28 27 26 26 27 26 24 20 17 14 12 12 11 7 5 4 5 5 6 6 6 5 7 8 10 11 12 13 14 15 16 17 18 20 21 22 23
41 41 40 39 36 33 32 31 30 28 28 27 25 23 21 17 15 14 13 10 8 7 7 6 6 6 7 7 7 8 10 11 11 12 13 14 15 16 18 19 21 22 24 24
44 45 45 44 41 39 36 33 33 31 29 28 26 24 21 18 17 16 14 11 9 8 7 7 7 7 8 8 8 9 11 12 12 13 14 16 17 18 19 21 23 24 26 26
48 49 48 48 46 44 41 37 36 34 33 31 29 26 22 20 18 16 15 12 11 9 8 8 9 9 10 10 10 12 14 15 15 15 16 18 18 18 19 22 23 25 27 29
48 51 52 51 49 48 45 40 39 37 34 34 31 27 24 21 19 17 16 13 12 11 10 10 11 11 11 12 13 14 15 16 16 18 19 20 21 21 22 23 25 27 28 30
41 45 49 51 50 52 47 44 41 39 36 34 32 30 27 24 21 18 17 15 14 12 12 12 12 12 13 14 15 16 17 19 20 21 22 23 23 23 25 27 28 30 31 32
34 38 43 46 48 48 46 43 43 40 38 36 34 32 30 27 24 20 18 17 15 14 13 13 13 14 15 16 17 18 19 21 22 22 23 24 25 27 27 29 30 31 32 33
29 33 37 41 44 45 42 40 41 40 40 37 36 35 32 28 25 21 19 17 16 15 15 15 16 16 17 18 19 20 21 23 24 25 26 27 28 29 30 31 32 33 33 33
26 29 32 35 38 39 37 36 37 38 36 35 34 33 30 26 23 21 19 16 15 15 16 17 17 18 19 20 21 22 23 24 26 27 28 29 30 31 32 32 32 33 33 34
20 23 26 29 32 32 32 32 33 33 32 32 29 27 27 24 21 19 17 16 15 16 17 18 19 20 21 22 23 24 25 26 28 29 30 31 32 32 32 32 32 33 34 34
17 18 19 22 25 26 27 28 29 29 28 29 26 24 25 22 19 18 17 17 17 17 18 19 20 21 23 24 25 26 27 28 30 31 31 32 32 33 33 33 34 35 36 37
13 13 13 15 17 20 22 23 24 25 25 26 25 23 20 20 18 16 16 17 17 18 19 21 22 23 24 25 26 27 28 29 30 31 32 33 33 34 34 35 36 37 38 39
7 7 8 11 11 13 16 18 16 17 19 21 21 19 17 17 16 14 15 16 17 19 20 22 23 24 25 26 27 28 29 30 31 32 33 33 34 35 36 37 38 39 40 42
5 6 6 6 7 9 10 11 14 14 13 14 14 14 14 14 14 14 15 17 18 19 21 22 23 24 25 27 28 29 30 31 32 33 33 34 35 36 38 39 40 42 43 45
Wind_Direction
251 247 246 251 276 315 344 342 331 327 330 326 325 326 329 328 333 338 339 343 347 351 352 342 303 208 198 195 198 199 199 202 202 203 204 207 211 214 218 214 211 212 210 204
242 235 232 235 252 321 336 325 319 319 322 323 321 321 325 326 328 336 343 349 354 359 4 5 9 199 189 189 190 190 190 193 197 199 201 202 208 212 211 209 207 205 205 201
241 232 234 233 246 296 310 308 309 313 318 321 321 320 318 323 329 336 344 354 360 6 12 21 39 116 165 174 181 185 189 188 189 194 194 197 201 202 206 205 201 203 204 201
235 238 240 240 242 264 286 290 298 305 311 315 318 322 324 324 332 340 350 2 9 12 17 29 43 98 150 170 176 181 186 184 184 188 192 195 198 202 204 203 202 206 206 201
234 238 244 245 237 241 272 282 290 300 309 316 322 327 337 341 342 348 355 8 19 24 25 32 48 86 128 160 172 177 182 185 187 189 194 199 203 206 206 204 204 207 205 202
234 241 248 249 239 236 260 277 286 296 308 315 322 332 341 346 351 358 7 12 23 30 34 38 56 88 122 144 161 170 178 184 188 194 199 204 207 208 210 208 208 209 208 209
233 238 243 243 240 242 254 275 288 295 305 315 324 336 343 344 352 358 12 17 24 27 38 45 56 84 125 145 159 168 177 186 194 198 200 203 207 209 210 211 213 216 217 218
242 237 237 235 236 245 256 271 285 296 304 312 320 329 336 341 346 352 5 10 18 25 32 40 50 72 103 142 161 172 182 191 198 202 203 206 210 212 214 217 221 223 224 224
256 235 229 236 238 245 260 266 281 288 295 303 311 320 329 331 335 346 2 9 13 11 16 28 39 65 95 123 162 183 193 197 199 201 208 212 215 217 220 223 227 229 231 233
267 252 229 238 243 247 259 267 276 283 289 295 301 307 314 321 330 334 348 2 6 357 352 360 4 30 107 133 173 196 204 207 207 209 211 214 217 223 228 230 232 234 237 241
258 260 239 235 242 249 254 262 271 278 286 291 295 301 307 312 319 323 332 343 348 344 339 336 326 308 254 230 217 208 211 215 218 219 220 222 226 231 235 237 238 240 244 247
246 252 251 242 241 247 253 258 266 275 283 284 287 292 299 306 309 318 322 323 319 312 309 307 307 288 265 249 238 224 222 226 228 229 229 231 237 242 245 245 246 248 250 252
242 246 251 251 247 246 250 255 261 268 276 277 280 286 291 298 300 306 315 317 305 300 296 286 286 288 280 271 257 243 240 240 239 238 236 241 245 247 248 250 253 254 255 255
243 245 249 252 252 250 250 255 258 265 271 273 273 278 283 288 293 299 307 308 297 292 290 281 276 276 279 283 274 262 257 255 250 247 248 250 251 255 255 257 258 260 260 259
246 247 249 252 254 252 252 254 256 260 265 268 269 269 273 279 282 289 298 301 294 293 288 278 271 268 269 270 273 272 267 263 258 257 258 257 259 260 260 262 265 265 264 266
249 250 252 253 254 253 252 253 254 257 259 262 263 263 269 274 276 284 292 291 290 287 287 285 286 286 281 276 280 282 278 271 267 267 268 263 267 270 271 270 274 275 272 272
248 250 252 254 253 254 251 252 253 254 254 256 258 260 264 269 273 280 284 281 282 282 282 282 284 285 287 286 283 281 281 276 276 279 281 278 278 278 280 282 282 281 280 279
249 250 252 254 253 251 251 250 250 250 250 252 252 254 258 261 266 272 271 272 273 276 277 278 280 283 286 286 285 285 285 283 285 285 286 288 289 289 288 287 287 286 283 281
255 252 251 252 252 252 250 247 245 245 245 246 248 250 254 256 259 261 265 268 269 272 273 274 276 279 282 283 283 284 284 285 286 288 290 290 290 289 289 289 289 288 287 285
261 257 255 253 252 252 249 245 243 243 242 242 246 249 249 252 253 254 257 257 261 265 268 271 272 275 279 281 283 284 285 286 288 289 290 291 292 292 291 290 290 289 287 287
263 261 257 254 252 250 246 244 242 242 244 244 245 243 242 245 249 252 249 253 258 261 264 267 271 275 278 280 283 285 286 288 288 289 290 291 292 292 291 291 291 289 287 287
269 262 258 254 252 251 246 244 241 242 244 244 241 238 240 240 239 237 242 247 254 258 261 266 270 274 277 279 282 284 286 287 288 288 289 290 291 290 290 289 288 287 287 286
275 271 260 256 253 249 244 243 242 242 244 242 238 241 241 241 241 239 239 247 253 257 262 268 272 274 277 279 280 282 285 286 287 287 288 289 289 288 288 288 288 288 288 288
285 277 263 257 252 245 243 240 242 240 242 242 245 243 235 241 239 235 241 248 255 260 266 270 273 276 278 280 282 283 285 287 287 288 289 289 288 288 288 288 288 288 289 289
291 277 261 258 248 241 239 238 234 235 241 243 243 236 238 236 234 239 246 253 258 264 269 273 276 278 279 281 283 285 286 287 288 288 288 288 289 289 289 289 290 290 290 291
285 284 274 259 248 245 238 233 233 237 230 223 222 221 224 229 235 246 254 260 265 268 272 275 277 279 281 282 284 286 286 287 288 289 290 289 290 290 290 290 291 291 291 292
Height
5890 5891 5891 5890 5889 5888 5886 5885 5884 5882 5880 5877 5874 5871 5869 5866 5862 5858 5854 5850 5845 5842 5838 5835 5832 5833 5833 5837 5841 5846 5850 5855 5859 5863 5865 5868 5870 5872 5873 5875 5876 5878 5879 5880
5887 5888 5887 5886 5886 5885 5884 5884 5883 5882 5879 5876 5872 5870 5867 5864 5861 5857 5852 5849 5845 5842 5838 5835 5833 5832 5833 5836 5840 5844 5848 5853 5857 5860 5863 5866 5868 5870 5871 5873 5875 5876 5878 5879
5883 5885 5883 5882 5882 5881 5882 5883 5882 5880 5877 5874 5871 5869 5865 5864 5860 5856 5852 5848 5844 5841 5839 5836 5834 5833 5835 5837 5839 5843 5847 5851 5854 5858 5861 5864 5866 5868 5870 5872 5874 5875 5876 5877
5879 5880 5879 5878 5878 5879 5879 5880 5879 5877 5876 5873 5871 5866 5863 5861 5858 5854 5851 5847 5844 5841 5839 5836 5835 5834 5835 5837 5839 5842 5845 5849 5852 5856 5859 5862 5864 5866 5869 5870 5872 5874 5875 5876
5876 5876 5875 5875 5875 5875 5875 5876 5875 5874 5873 5871 5868 5865 5863 5859 5856 5853 5850 5846 5843 5841 5839 5838 5835 5835 5836 5837 5840 5842 5844 5848 5851 5855 5858 5860 5863 5865 5867 5869 5870 5872 5873 5875
5872 5872 5872 5872 5872 5872 5873 5873 5872 5871 5870 5869 5866 5864 5861 5858 5855 5851 5849 5846 5844 5842 5841 5839 5838 5838 5838 5839 5840 5842 5844 5847 5850 5853 5856 5859 5861 5863 5865 5867 5868 5870 5871 5873
5868 5868 5868 5869 5869 5870 5870 5870 5869 5868 5867 5865 5863 5861 5860 5857 5854 5851 5849 5847 5844 5843 5842 5841 5840 5839 5839 5840 5841 5842 5844 5847 5849 5852 5854 5857 5859 5862 5863 5865 5866 5868 5869 5870
5863 5865 5865 5865 5866 5866 5867 5867 5867 5865 5864 5862 5860 5859 5859 5856 5854 5851 5849 5846 5844 5843 5842 5842 5841 5840 5840 5840 5841 5843 5844 5846 5848 5851 5853 5856 5858 5859 5861 5863 5864 5865 5867 5868
5858 5861 5861 5862 5862 5862 5861 5862 5863 5862 5860 5859 5858 5857 5856 5854 5853 5850 5848 5846 5844 5844 5843 5843 5842 5841 5841 5841 5841 5842 5844 5846 5847 5849 5851 5853 5855 5857 5859 5860 5862 5863 5864 5864
5852 5854 5857 5857 5858 5858 5858 5858 5858 5858 5857 5855 5854 5854 5854 5852 5850 5849 5847 5846 5844 5843 5843 5843 5843 5842 5842 5841 5841 5842 5843 5845 5846 5848 5850 5852 5853 5855 5857 5858 5859 5860 5860 5861
5844 5846 5850 5851 5852 5853 5854 5854 5854 5853 5853 5852 5850 5852 5850 5849 5847 5847 5846 5845 5844 5843 5842 5842 5842 5842 5841 5841 5841 5841 5843 5844 5845 5846 5848 5849 5851 5852 5853 5854 5855 5856 5857 5857
5837 5838 5840 5843 5846 5847 5848 5848 5849 5849 5849 5847 5847 5849 5847 5846 5845 5845 5844 5843 5842 5842 5841 5841 5841 5841 5840 5840 5839 5840 5841 5842 5843 5844 5845 5847 5848 5849 5850 5851 5852 5852 5852 5852
5831 5832 5833 5836 5840 5841 5841 5842 5843 5843 5843 5842 5842 5845 5842 5842 5841 5842 5842 5840 5839 5840 5840 5839 5839 5839 5839 5838 5838 5838 5838 5839 5840 5841 5842 5843 5844 5845 5846 5847 5847 5847 5847 5846
5825 5825 5827 5828 5830 5832 5834 5836 5837 5838 5837 5837 5837 5838 5838 5839 5839 5839 5838 5837 5837 5837 5837 5837 5837 5837 5837 5836 5836 5836 5836 5836 5837 5837 5838 5839 5839 5840 5841 5841 5841 5840 5840 5839
5816 5817 5818 5819 5821 5824 5826 5828 5830 5831 5831 5832 5832 5833 5834 5834 5835 5835 5834 5834 5833 5833 5833 5834 5834 5834 5834 5834 5834 5834 5833 5833 5832 5832 5833 5834 5834 5834 5834 5834 5833 5832 5831 5831
5808 5808 5809 5811 5813 5814 5817 5820 5822 5824 5825 5825 5826 5827 5828 5829 5830 5830 5830 5830 5830 5830 5830 5830 5830 5830 5830 5830 5829 5830 5829 5828 5826 5827 5827 5827 5827 5827 5827 5826 5825 5825 5824 5824
5798 5798 5799 5800 5803 5805 5807 5812 5814 5816 5817 5819 5820 5823 5823 5824 5825 5826 5826 5826 5826 5825 5825 5826 5825 5825 5825 5825 5824 5824 5824 5823 5822 5822 5821 5821 5820 5819 5819 5818 5818 5817 5816 5816
5788 5788 5787 5788 5792 5793 5799 5802 5805 5807 5809 5810 5812 5815 5817 5818 5819 5820 5821 5821 5821 5821 5821 5821 5820 5820 5820 5820 5819 5819 5819 5818 5817 5816 5815 5815 5814 5813 5812 5812 5810 5809 5808 5807
5776 5776 5776 5777 5778 5781 5786 5790 5794 5797 5799 5802 5804 5807 5809 5811 5812 5814 5815 5816 5816 5816 5816 5816 5816 5815 5815 5815 5814 5814 5813 5812 5811 5810 5809 5808 5807 5806 5805 5803 5802 5800 5798 5797
5766 5766 5766 5766 5768 5770 5776 5780 5782 5787 5788 5793 5795 5798 5801 5803 5805 5807 5807 5809 5810 5811 5811 5811 5811 5810 5810 5809 5809 5808 5807 5806 5804 5803 5802 5801 5799 5797 5796 5794 5793 5791 5788 5787
5759 5757 5757 5757 5757 5760 5765 5768 5773 5777 5781 5784 5785 5789 5791 5794 5798 5800 5801 5803 5805 5805 5805 5806 5805 5805 5804 5803 5802 5801 5800 5799 5797 5796 5794 5793 5791 5789 5787 5785 5783 5781 5778 5776
5751 5750 5749 5750 5750 5755 5757 5761 5765 5769 5772 5775 5776 5779 5783 5785 5789 5792 5795 5797 5799 5800 5800 5800 5800 5799 5798 5797 5796 5795 5793 5791 5790 5788 5786 5784 5782 5780 5778 5776 5773 5771 5769 5767
5745 5745 5744 5745 5747 5748 5750 5754 5758 5762 5765 5768 5771 5774 5777 5780 5783 5786 5789 5791 5793 5794 5794 5794 5794 5793 5792 5791 5790 5788 5786 5784 5782 5780 5778 5776 5773 5771 5769 5766 5764 5761 5759 5756
5740 5739 5739 5739 5740 5742 5745 5748 5751 5755 5759 5762 5764 5767 5770 5774 5778 5780 5782 5784 5786 5787 5787 5787 5787 5786 5785 5784 5782 5780 5778 5776 5774 5771 5769 5766 5764 5761 5759 5756 5754 5751 5748 5745
5737 5736 5736 5736 5737 5739 5741 5744 5747 5750 5753 5756 5758 5762 5765 5768 5771 5774 5776 5778 5780 5780 5780 5780 5779 5778 5777 5775 5773 5772 5770 5767 5765 5763 5760 5758 5755 5752 5749 5746 5743 5740 5736 5733
5736 5735 5735 5735 5735 5736 5738 5739 5743 5745 5749 5751 5754 5757 5760 5763 5766 5768 5770 5772 5773 5773 5773 5772 5771 5770 5768 5766 5765 5763 5761 5758 5756 5753 5751 5748 5745 5741 5738 5734 5731 5727 5723 5719